Location: Kalberh�ni
(46.4610°N, 7.2453°E)
Time: 08:59:12
(UTC+00:00)

deb Kosmos-2227 - Pass Details

Date: 19 August 2022
Orbit: 774 x 865 km, 70.9° (Epoch: 26 September)

Event Time Altitude Azimuth Distance (km) Brightness Sun altitude
Rises 21:53:02 0° 335° (NNW) 3,352 ? -26.7°
Reaches altitude 10° 21:55:29 10° 339° (NNW) 2,430 ? -26.9°
Maximum altitude 22:01:01 62° 60° (ENE) 943 ? -27.4°
Enters shadow 22:01:11 61° 69° (ENE) 946 ? -27.4°
